AirNav   Duncan Aviation - Near you to keep you flying
 
 1313 users online  

0NC6 Our Community Hospital Heliport
Scotland Neck, North Carolina, USA

GOING TO SCOTLAND NECK?


FAA INFORMATION EFFECTIVE 26 JANUARY 2023

Location

FAA Identifier: 0NC6
Lat/Long: 36-07-41.5600N 077-25-45.0100W
36-07.692667N 077-25.750167W
36.1282111,-77.4291694
(estimated)
Elevation: 113 ft. / 34 m (estimated)
Variation: 08W (1985)
Time zone: UTC -5 (UTC -4 during Daylight Saving Time)
Zip code: 27874

Heliport Operations

Heliport use: Private use, MEDICAL.
Activation date: 09/1980
Control tower: no
ARTCC: WASHINGTON CENTER
FSS: RALEIGH FLIGHT SERVICE STATION
Attendance: UNATNDD
Wind indicator: no
Segmented circle: no

Heliport Communications

WX AWOS-3P at ETC (13 nm SW): 119.575 (252-641-1640)
WX AWOS-3PT at IXA (16 nm NW): 119.975 (252-583-3446)
WX AWOS-3 at ASJ (16 nm NE): 119.075 (252-345-2967)

Nearby radio navigation aids

VOR radial/distance  VOR name  Freq  Var
TYIr061/16.1TAR RIVER VORTAC117.8005W
CVIr250/30.7COFIELD VORTAC114.6009W

 
NDB name  Hdg/Dist  Freq  Var  ID
ALWOOD003/25.423009WAQE .- --.- .

Heliport Services

Runway Information

Helipad H1

Dimensions: 200 x 150 ft. / 61 x 46 m
Surface: turf
Latitude: 36-07.692667N
Longitude: 077-25.750167W
Elevation: 113.0 ft.
Traffic pattern: leftleft

Heliport Ownership and Management from official FAA records

Ownership: Privately-owned
Owner: OUR COMMUNITY HOSPITAL
921 JR HIGH SCHOOL ROAD, PO BOX 405
SCOTLAND NECK, NC 27874
Phone 252-826-4144
Manager: KIM STALLINGS
921 JR HIGH SCHOOL ROAD, PO BOX 405
SCOTLAND NECK, NC 27874
Phone 252-883-5086

Additional Remarks

FOR CD CTC WASHINGTON ARTCC AT 703-771-3587.

Instrument Procedures

There are no published instrument procedures at 0NC6.

Some nearby airports with instrument procedures:

KETC - Tarboro-Edgecombe Airport (13 nm SW)
KIXA - Halifax/Northampton Regional Airport (16 nm NW)
KASJ - Tri-County Airport at Henry Joyner Field (16 nm NE)
KMCZ - Martin County Airport (20 nm SE)
KRWI - Rocky Mount/Wilson Regional Airport (28 nm SW)
 
Loc | Ops | Rwys | IFR | FBO | Links
Com | Nav | Svcs | Stats | Notes
Area around 0NC6 (Our Community Hospital Heliport)
 
Road maps at: MapQuest Bing Google
 
Aerial photo
No photo
 
Sectional chart

 
Airport distance calculator
Flying to Our Community Hospital Heliport? Find the distance to fly.

From to 0NC6

Sunrise and sunset
Times for 31-Jan-2023
 Local
(UTC-5)
 Zulu
(UTC)
Morning civil twilight06:4511:45
Sunrise07:1212:12
Sunset17:3422:34
Evening civil twilight18:0123:01

Current date and time
Zulu (UTC)  01-Feb-2023 01:07:45
Local (UTC-5)  31-Jan-2023 20:07:45
 
METAR
KETC 
13nm SW 
010055Z AUTO 00000KT 3SM -RA BR 12/12 A3014 RMK AO2 T01240122
KIXA 
16nm NW 
010055Z AUTO 04011KT 3SM DZ OVC002 10/10 A3014 RMK AO2 P0002
KASJ 
16nm NE 
010055Z AUTO 04003KT 1 3/4SM RA OVC003 08/08 A3016 RMK AO2 T00810081
TAF
KRWI 
28nm SW 
312122Z 3121/0118 20005KT 2SM -RA OVC006 FM312300 21004KT 3SM -RA BR OVC004 FM010000 VRB03KT 5SM BR OVC004 FM010600 01005KT 3SM -RA BR OVC003 FM011500 02008KT 3SM -RA BR OVC007
KPGV 
31nm S 
311725Z 3118/0118 VRB03KT P6SM VCSH OVC005 FM010200 00000KT 5SM BR OVC005 FM010900 01007KT 3SM -RA BR OVC003 AMD LTD TO CLD VIS AND WIND
NOTAMs
Click for the latest NOTAMs
NOTAMs are issued by the DoD/FAA and will open in a separate window not controlled by AirNav.

 

 
 

Would you like to see your business listed on this page?

 If your business provides an interesting product or service to pilots, flight crews, aircraft, or users of the Our Community Hospital Heliport, you should consider listing it here.  To start the listing process, click on the button below
 
Add a business
 

Other Pages about Our Community Hospital Heliport

Update a link
 
Copyright © AirNav, LLC. All rights reserved. Privacy Policy  Contact